www.pogodaiklimat.ru
ПОГОДА в Гран-Канарии
Время
(UTC), дата
13 21.11
14 21.11
15 21.11
16 21.11
17 21.11
18 21.11
19 21.11
20 21.11
21 21.11
22 21.11
23 21.11
00 22.11
01 22.11
02 22.11
03 22.11
04 22.11
05 22.11
06 22.11
07 22.11
08 22.11
09 22.11
10 22.11
11 22.11
12 22.11
13 22.11
14 22.11
15 22.11
16 22.11
17 22.11
18 22.11
19 22.11
20 22.11
21 22.11
22 22.11
23 22.11
00 23.11
01 23.11
02 23.11
03 23.11
04 23.11
05 23.11
06 23.11
07 23.11
08 23.11
09 23.11
10 23.11
11 23.11
12 23.11
13 23.11
14 23.11
15 23.11
16 23.11
17 23.11
18 23.11
19 23.11
20 23.11
21 23.11
22 23.11
23 23.11
00 24.11
01 24.11
02 24.11
03 24.11
04 24.11
05 24.11
06 24.11
07 24.11
08 24.11
09 24.11
10 24.11
11 24.11
12 24.11
13 24.11
14 24.11
15 24.11
16 24.11
17 24.11
18 24.11
19 24.11
20 24.11
21 24.11
22 24.11
23 24.11
00 25.11
01 25.11
02 25.11
03 25.11
04 25.11
05 25.11
06 25.11
07 25.11
08 25.11
09 25.11
10 25.11
11 25.11
12 25.11
13 25.11
14 25.11
15 25.11
16 25.11
17 25.11
18 25.11
19 25.11
20 25.11
21 25.11
22 25.11
23 25.11
00 26.11
01 26.11
02 26.11
03 26.11
04 26.11
05 26.11
06 26.11
07 26.11
08 26.11
09 26.11
10 26.11
11 26.11
12 26.11
13 26.11
14 26.11
15 26.11
16 26.11
17 26.11
18 26.11
19 26.11
20 26.11
21 26.11
22 26.11
23 26.11
00 27.11
01 27.11
02 27.11
03 27.11
04 27.11
05 27.11
06 27.11
07 27.11
08 27.11
09 27.11
10 27.11
11 27.11
12 27.11
13 27.11
14 27.11
15 27.11
16 27.11
17 27.11
18 27.11
19 27.11
20 27.11
21 27.11
22 27.11
23 27.11
00 28.11
01 28.11
02 28.11
03 28.11
04 28.11
05 28.11
06 28.11
07 28.11
08 28.11
09 28.11
10 28.11
11 28.11
12 28.11
Ветер
(напр.,м/с)
Видим. Явления Облачность Т
(С)
Тd
(С)
f
(%)
Тe
(С)
Тes
(С)
Комфортность P
(гПа)
Po
(гПа)
Тmin
(С)
Tmax
(С)
R
(мм)
R24
(мм)
S
(см)
В 2 н/о н/о +24.7 +11.2 43 +26 +26 жарко 1019.8 1014.4
В 2 н/о н/о +24.9 +9.1 37 +26 +26 жарко 1018.8 1013.4
В 1 20 км [макс. диам. градин 0 мм] ясно +24.9 +9.2 37 +26 +33 жарко 1018.3 1012.9
В 2 н/о н/о +25.5 +6.0 29 +25 +25 комфорт 1018.1 1012.7
В 2 н/о н/о +25.0 +5.0 28 +25 +25 комфорт 1018.3 1012.9
СВ 1 20 км [макс. диам. градин 0 мм] 1/0
[Cc]
+24.2 +4.5 28 +24 +24 комфорт 1018.7 1013.3 +25.6
В 2 н/о н/о +22.9 +4.9 31 +23 +23 комфорт 1019.6 1014.1
СВ 3 н/о н/о +22.4 +4.1 30 +22 +22 комфорт 1019.8 1014.3
В 4 20 км [макс. диам. градин 0 мм] ясно +21.9 +5.5 34 +22 +22 комфорт 1020.1 1014.6
В 5 н/о н/о +22.3 +6.2 35 +23 +23 комфорт 1020.1 1014.6
СВ 5 н/о н/о +22.4 +7.7 39 +23 +23 комфорт 1020.0 1014.5
В 4 20 км [макс. диам. градин 0 мм] ясно +21.2 +7.9 42 +22 +22 комфорт 1020.0 1014.5
В 4 н/о н/о +20.6 +7.4 42 +22 +22 комфорт 1019.6 1014.1
В 4 н/о н/о +21.1 +8.2 43 +22 +22 комфорт 1019.6 1014.1
В 4 20 км [макс. диам. градин 0 мм] ясно +20.4 +8.4 46 +22 +22 комфорт 1019.5 1014.0
В 4 н/о н/о +20.1 +8.9 48 +21 +21 комфорт 1019.6 1014.1
В 3 н/о н/о +20.0 +8.6 48 +21 +21 комфорт 1019.7 1014.2
В 4 20 км [макс. диам. градин 0 мм] ясно +19.8 +8.9 49 +21 +21 комфорт 1019.9 1014.4 +19.5
В 3 н/о н/о +19.4 +10.5 56 +21 +21 комфорт 1020.5 1015.0
В 3 н/о н/о +20.0 +12.4 62 +22 +22 комфорт 1021.2 1015.7
С 3 20 км [макс. диам. градин 0 мм] 5/0
[Ac As Ci fib]
+22.1 +14.8 63 +25 +26 комфорт 1021.7 1016.2
В 3 н/о н/о +22.5 +16.0 67 +27 +27 душно 1022.0 1016.5
В 3 н/о н/о +23.3 +16.5 66 +28 +28 душно 1022.0 1016.5
В 3 23 км [макс. диам. градин 0 мм] 6/1 600 м
[Sc Ac As Ci sp]
+23.5 +16.2 64 +27 +32 душно 1021.7 1016.2
В 3 н/о н/о +23.6 +16.8 66 +27 +27 жарко 1020.9 1015.5
В 3 н/о н/о +23.3 +17.3 69 +29 +29 душно 1020.0 1014.6
В 3 22 км [макс. диам. градин 0 мм] 4/1 600 м
[Sc Ac As Ci sp]
+23.1 +16.5 66 +28 +32 душно 1019.6 1014.2
В 3 н/о н/о +22.7 +17.5 72 +28 +28 душно 1019.8 1014.3
В 2 н/о н/о +22.1 +17.0 73 +27 +27 душно 1020.0 1014.5
СВ 2 24 км [макс. диам. градин 0 мм] 4/0
[Ac As Ci fib]
+21.8 +15.9 69 +25 +25 комфорт 1020.5 1015.0 +24.0
С 3 н/о н/о +21.3 +16.2 73 +25 +25 комфорт 1020.6 1015.1
С 4 н/о н/о +21.1 +14.1 64 +24 +24 комфорт 1021.1 1015.6
СВ 2 20 км [макс. диам. градин 0 мм] 9/0
[Cs]
+21.8 +9.6 46 +23 +23 комфорт 1021.2 1015.7
С 3 н/о н/о +21.2 +6.8 39 +22 +22 комфорт 1021.5 1016.0
В 3 н/о н/о +21.9 +7.5 39 +23 +23 комфорт 1021.5 1016.0
В 3 20 км [макс. диам. градин 0 мм] 8/0
[Ac trans]
+20.9 +6.9 40 +22 +22 комфорт 1021.5 1016.0
СВ 3 н/о н/о +21.0 +6.5 39 +22 +22 комфорт 1021.2 1015.7
В 3 н/о н/о +20.1 +7.3 43 +21 +21 комфорт 1021.2 1015.7
СВ 2 20 км [макс. диам. градин 0 мм] ясно +19.4 +5.8 41 +21 +21 комфорт 1020.9 1015.4
СВ 2 н/о н/о +18.8 +5.0 40 +20 +20 тепло 1021.1 1015.5
СВ 2 н/о н/о +19.8 +7.6 45 +21 +21 комфорт 1020.8 1015.3
штиль 0 20 км [макс. диам. градин 0 мм] ясно +18.8 +10.4 58 +19 +19 тепло 1021.0 1015.5 +18.4
ЮЗ 2 н/о н/о +18.2 +11.6 65 +19 +19 тепло 1021.4 1015.8
СЗ 1 н/о н/о +19.3 +14.7 75 +22 +22 комфорт 1022.1 1016.6
С 1 25 км [макс. диам. градин 0 мм] 4/0
[Ac As]
+21.6 +16.5 73 +25 +26 комфорт 1022.6 1017.1
В 2 н/о н/о +23.2 +14.9 60 +27 +27 душно 1023.3 1017.8
Ю 2 н/о н/о +24.2 +13.9 53 +27 +27 жарко 1023.5 1018.0
Ю 2 25 км [макс. диам. градин 0 мм] 4/0
[Ac As Ci fib]
+24.5 +13.0 49 +27 +33 жарко 1022.9 1017.5
ЮВ 3 н/о н/о +23.7 +15.7 61 +27 +27 жарко 1022.4 1016.9
ЮВ 3 н/о н/о +23.9 +15.6 60 +27 +27 жарко 1021.6 1016.2
ЮВ 3 26 км [макс. диам. градин 0 мм] 5/0
[Ac As Ci fib]
+23.6 +14.7 57 +26 +30 жарко 1021.1 1015.6
ЮВ 4 н/о н/о +23.2 +13.5 54 +26 +26 жарко 1021.0 1015.5
ЮВ 2 н/о н/о +22.9 +12.0 50 +25 +25 комфорт 1021.2 1015.7
штиль 0 25 км [макс. диам. градин 0 мм] 6/0
[Ac As Ci fib]
+22.3 +11.4 50 +24 +24 комфорт 1021.3 1015.8 +24.6
СВ 1 н/о н/о +21.2 +13.3 61 +24 +24 комфорт 1021.5 1016.0
СВ 2 н/о н/о +20.8 +12.6 59 +24 +24 комфорт 1022.3 1016.8
СВ 2 20 км [макс. диам. градин 0 мм] 5/0
[Ac trans]
+19.9 +12.2 61 +22 +22 комфорт 1022.8 1017.3
СВ 3 н/о н/о +19.8 +12.0 61 +22 +22 комфорт 1023.0 1017.5
В 3 н/о н/о +19.6 +9.8 53 +21 +21 комфорт 1023.2 1017.7
СВ 4 20 км [макс. диам. градин 0 мм] 5/0
[Ac trans]
+19.9 +8.7 48 +21 +21 комфорт 1023.3 1017.8
СВ 3 н/о н/о +19.9 +2.3 31 +20 +20 тепло 1023.0 1017.5
СВ 3 н/о н/о +19.6 +3.1 33 +20 +20 тепло 1022.9 1017.3
СВ 2 20 км [макс. диам. градин 0 мм] 3/0
[Ac trans]
+21.0 +7.1 41 +23 +23 комфорт 1022.6 1017.1
ЮЗ 1 н/о н/о +20.0 +8.6 48 +22 +22 комфорт 1022.3 1016.8
З 2 н/о н/о +19.5 +10.6 56 +21 +21 комфорт 1022.3 1016.8
С 1 20 км [макс. диам. градин 0 мм] 8/0
[As op]
+19.3 +12.4 64 +22 +22 комфорт 1022.0 1016.5 +19.1
С 3 н/о н/о +19.4 +11.4 60 +21 +21 комфорт 1022.5 1017.0
СЗ 2 н/о н/о +19.9 +12.4 62 +22 +22 комфорт 1023.0 1017.5
Ю 2 н/о [макс. диам. градин 0 мм] н/о +21.5 +14.8 66 +25 +25 комфорт 1023.6 1018.1
Ю 3 н/о н/о +22.5 +15.4 64 +26 +26 жарко 1024.1 1018.6
Ю 3 н/о н/о +22.9 +15.7 64 +27 +27 душно 1024.3 1018.8
ЮВ 4 25 км [макс. диам. градин 0 мм] 8/0
[Ac As Cc]
+22.9 +15.1 61 +27 +29 душно 1023.9 1018.4
ЮВ 4 н/о н/о +24.8 +13.3 49 +27 +27 жарко 1023.0 1017.6
ЮВ 4 н/о н/о +24.2 +13.8 52 +26 +26 жарко 1022.0 1016.6
В 4 25 км [макс. диам. градин 0 мм] 8/0
[Ac As Cc]
+23.5 +12.9 51 +26 +28 жарко 1021.6 1016.1
В 3 н/о н/о +23.0 +12.4 51 +26 +26 жарко 1021.5 1016.0
В 2 н/о н/о +22.5 +12.3 52 +25 +25 комфорт 1022.0 1016.5
В 1 22 км [макс. диам. градин 0 мм] 8/0
[Ac As Cc]
+21.8 +12.3 55 +24 +24 комфорт 1022.5 1017.0 +24.8
штиль 0 н/о н/о +21.0 +11.8 56 +23 +23 комфорт 1023.0 1017.5
СВ 2 н/о н/о +20.7 +11.9 57 +23 +23 комфорт 1023.2 1017.7
В 3 18 км [макс. диам. градин 0 мм] 6/0
[Ac As]
+20.3 +11.9 58 +23 +23 комфорт 1023.2 1017.7
СВ 2 н/о н/о +19.6 +6.9 44 +21 +21 комфорт 1023.4 1017.8
СВ 3 н/о н/о +19.8 +1.1 29 +20 +20 тепло 1023.2 1017.6
В 2 15 км [макс. диам. градин 0 мм] 5/0
[Ac trans]
+19.5 +0.6 28 +20 +20 тепло 1022.7 1017.1
В 3 н/о н/о +19.0 +0.3 28 +19 +19 тепло 1022.3 1016.7
В 2 н/о н/о +17.3 +0.1 31 +18 +18 тепло 1022.1 1016.5
СВ 3 15 км [макс. диам. градин 0 мм] 4/0
[Ac trans]
+18.0 -0.7 28 +18 +18 по сезону 1021.6 1016.0
СВ 1 н/о н/о +18.2 -0.4 28 +19 +19 тепло 1021.3 1015.7
В 3 н/о н/о +17.6 -0.6 29 +18 +18 тепло 1021.0 1015.4
В 3 15 км [макс. диам. градин 0 мм] ясно +16.8 -0.3 31 +17 +17 по сезону 1020.8 1015.2 +16.5
СВ 4 н/о н/о +18.8 +9.5 55 +19 +19 тепло 1021.0 1015.5
С 5 н/о н/о +18.6 +11.1 62 +19 +19 тепло 1021.4 1015.8
С 6 20 км [макс. диам. градин 0 мм] 3/1 600 м
[Sc Cs]
+21.4 +14.1 63 +24 +25 комфорт 1021.2 1015.7
СВ 8 н/о н/о +23.0 +15.3 62 +27 +27 душно 1021.5 1016.0
СВ 9 н/о н/о +22.9 +16.6 68 +28 +28 душно 1021.4 1015.9
СВ 8 20 км [макс. диам. градин 0 мм] 3/1 600 м
[Sc Cs]
+23.5 +15.7 62 +27 +28 душно 1020.5 1015.1
С 10 н/о н/о +24.0 +13.8 53 +26 +26 жарко 1019.6 1014.2
С 10 н/о н/о +23.1 +15.1 61 +27 +27 душно 1018.4 1013.0
С 8 20 км [макс. диам. градин 0 мм] 3/3 1500 м
[Sc]
+24.1 +11.9 46 +26 +26 жарко 1017.7 1012.3
В 9 н/о н/о +24.7 +12.6 47 +27 +27 жарко 1017.7 1012.3
В 6 н/о н/о +23.7 +10.7 44 +25 +25 комфорт 1017.9 1012.5
В 6 20 км [макс. диам. градин 0 мм] 5/5 600 м
[Cu Sc]
+22.3 +10.8 48 +24 +24 комфорт 1018.0 1012.5 +25.4
С 10 н/о н/о +19.4 +15.2 77 +20 +20 по сезону 1018.8 1013.3
В 8 н/о н/о +18.4 +15.2 82 +18 +18 прохладно 1018.9 1013.4
СВ 6 15 км [макс. диам. градин 0 мм] 8/8 1000 м
[Cu Sc]
+18.0 +14.7 81 +18 +18 по сезону 1019.3 1013.8
В 9 н/о осадки н/о +17.5 +14.7 84 +16 +16 прохладно 1019.6 1014.0
В 9 н/о в посл. час осадки н/о +17.7 +13.1 74 +17 +17 по сезону 1019.3 1013.7
В 8 н/о {морось, дождь} [макс. диам. градин 0 мм] н/о +17.6 +11.4 67 +17 +17 тепло 1018.5 1012.9 0.0
В 7 н/о н/о +17.4 +11.3 67 +16 +16 тепло 1018.1 1012.5
В 10 н/о н/о +17.1 +11.8 71 +16 +16 тепло 1017.3 1011.7
С 5 15 км [макс. диам. градин 0 мм] 5/5 1000 м
[Cu Sc]
+16.8 +9.9 64 +16 +16 по сезону 1017.0 1011.4
В 8 н/о н/о +17.0 +10.2 64 +16 +16 тепло 1016.1 1010.5
В 6 н/о н/о +16.0 +11.1 73 +15 +15 тепло 1016.4 1010.8
В 9 15 км [макс. диам. градин 0 мм] 3/3 1000 м
[Cu Sc]
+16.3 +10.6 69 +15 +15 по сезону 1016.5 1010.9 +15.7 0.0 0.0
В 8 н/о н/о +16.2 +10.7 70 +15 +15 тепло 1016.3 1010.7
В 9 н/о н/о +16.3 +10.6 69 +15 +15 тепло 1016.3 1010.7
СВ 9 12 км [макс. диам. градин 0 мм] 5/5 600 м
[Cu Sc]
+17.9 +11.1 64 +17 +17 по сезону 1016.6 1011.1
В 10 н/о н/о +19.8 +9.3 51 +20 +20 тепло 1016.5 1011.0
В 5 н/о н/о +20.5 +9.0 48 +22 +22 комфорт 1016.4 1010.9
В 9 15 км [макс. диам. градин 0 мм] 8/8 600 м
[Cu Sc]
+19.3 +10.8 58 +19 +20 по сезону 1016.0 1010.5
В 8 н/о н/о +20.0 +9.5 51 +21 +21 комфорт 1014.8 1009.3
СВ 9 н/о н/о +19.3 +11.2 59 +20 +20 тепло 1014.1 1008.6
В 4 18 км [макс. диам. градин 0 мм] 8/8 600 м
[Cu Sc]
+19.5 +11.3 59 +21 +21 комфорт 1013.4 1007.9
СВ 8 н/о н/о +19.6 +8.4 48 +20 +20 тепло 1013.2 1007.7
В 5 н/о осадки н/о +17.2 +13.6 79 +17 +17 по сезону 1013.2 1007.7
СВ 4 10 км [макс. диам. градин 0 мм] 9/9 600 м
[Cu Sc]
+16.9 +12.0 73 +17 +17 по сезону 1013.4 1007.9 +20.7 0.6
СВ 3 н/о н/о +17.0 +11.5 70 +17 +17 по сезону 1013.6 1008.1
СВ 4 н/о в посл. час осадки н/о +16.8 +11.1 69 +16 +16 по сезону 1013.9 1008.4
СВ 6 н/о н/о +16.7 +11.4 71 +16 +16 по сезону 1014.6 1009.0
СВ 4 н/о осадки н/о +15.6 +11.6 77 +15 +15 по сезону 1014.9 1009.3
СВ 3 н/о осадки н/о +15.1 +11.8 81 +14 +14 по сезону 1014.9 1009.3
СВ 4 20 км [макс. диам. градин 0 мм] 5/5 600 м
[Sc]
+16.3 +9.4 64 +16 +16 тепло 1014.9 1009.3 0.2
0 н/о
СВ 3 н/о н/о +15.3 +10.6 74 +15 +15 тепло 1014.1 1008.5
СВ 3 20 км [макс. диам. градин 0 мм] 4/4 600 м
[Sc]
+14.9 +11.1 78 +14 +14 по сезону 1013.9 1008.3
СВ 4 н/о осадки н/о +14.9 +11.2 79 +14 +14 тепло 1013.7 1008.1
В 4 н/о в посл. час осадки н/о +15.6 +9.9 69 +15 +15 тепло 1013.9 1008.3
СВ 4 20 км [макс. диам. градин 0 мм] 4/4 600 м
[Sc]
+15.8 +9.8 67 +15 +15 тепло 1013.8 1008.2 +14.7 1 1
В 6 н/о в посл. час осадки н/о +15.3 +10.8 75 +14 +14 тепло 1014.4 1008.8
В 4 н/о в посл. час осадки н/о +15.9 +10.1 68 +15 +15 тепло 1015.1 1009.5
В 5 20 км {дождь} [макс. диам. градин 0 мм] 4/4 300 м
[Cu Sc]
+17.8 +10.4 62 +17 +18 тепло 1015.6 1010.1
В 6 н/о н/о +18.1 +11.3 64 +18 +18 тепло 1016.4 1010.9
В 8 н/о н/о +19.8 +11.2 58 +21 +21 комфорт 1016.3 1010.8
В 7 25 км [макс. диам. градин 0 мм] 4/4 600 м
[Sc]
+21.0 +9.9 49 +23 +24 комфорт 1016.1 1010.6 0.0
В 7 н/о н/о +22.1 +10.3 47 +24 +24 комфорт 1015.4 1009.9
СВ 8 н/о н/о +22.3 +9.4 44 +24 +24 комфорт 1014.7 1009.3
СВ 9 25 км [макс. диам. градин 0 мм] 3/3 600 м
[Cu Sc]
+21.6 +9.4 46 +23 +23 комфорт 1014.4 1008.9
СВ 8 н/о н/о +21.7 +8.9 44 +23 +23 комфорт 1014.5 1009.0
В 9 н/о н/о +20.0 +11.8 59 +21 +21 комфорт 1014.7 1009.2
В 7 18 км [макс. диам. градин 0 мм] 5/5 300 м
[Cu Sc]
+19.9 +9.0 49 +21 +21 комфорт 1015.0 1009.5 +22.4 0.0
В 4 н/о н/о +18.9 +10.4 58 +20 +20 тепло 1015.5 1010.0
СВ 5 н/о н/о +18.9 +10.6 59 +19 +19 тепло 1015.7 1010.2
В 6 8000 м слаб. дождь [макс. диам. градин 0 мм] 9/9 300 м
[Cu Sc]
+18.2 +14.1 77 +18 +18 тепло 1016.2 1010.7
СВ 5 н/о н/о +19.0 +10.2 57 +20 +20 тепло 1016.8 1011.3
СВ 3 н/о н/о +18.0 +12.0 68 +18 +18 тепло 1017.0 1011.5
СВ 3 20 км {дождь} [макс. диам. градин 0 мм] 4/4 600 м
[Sc]
+17.5 +11.4 67 +17 +17 тепло 1017.4 1011.8
СВ 2 н/о н/о +16.9 +11.7 71 +17 +17 тепло 1017.0 1011.4
В 3 н/о н/о +17.4 +12.3 72 +18 +18 тепло 1016.8 1011.3
СВ 3 15 км слаб. дождь [макс. диам. градин 0 мм] 9/9 300 м
[Sc]
+18.3 +12.4 68 +19 +19 тепло 1016.5 1011.0
СВ 3 н/о н/о +17.6 +12.0 70 +18 +18 тепло 1016.2 1010.7
В 2 н/о н/о +18.2 +13.0 72 +19 +19 тепло 1016.1 1010.6
С 2 18 км [макс. диам. градин 0 мм] 5/5 1000 м
[Sc]
+17.9 +11.9 68 +18 +18 тепло 1016.2 1010.7 +16.9 0.0 0.0
СВ 2 н/о н/о +17.5 +11.6 68 +18 +18 тепло 1016.6 1011.1
С 1 н/о н/о +17.4 +11.8 70 +18 +18 тепло 1017.4 1011.8
СВ 1 13 км [макс. диам. градин 0 мм] 8/8 600 м
[Sc]
+18.9 +12.1 65 +21 +21 комфорт 1017.8 1012.3
В 4 н/о н/о +19.7 +12.9 65 +21 +21 комфорт 1018.6 1013.1
СВ 1 н/о н/о +21.0 +12.1 57 +24 +24 комфорт 1018.3 1012.8
В 4 20 км [макс. диам. градин 0 мм] 6/6 600 м
[Sc]
+21.8 +12.8 57 +24 +27 комфорт 1017.7 1012.2
Местоположение метеостанции Гран-Канария (Канарские Острова): широта 27.93 долгота -15.38 высота над уровнем моря 47 м.
В архиве по умолчанию представлена погода в Гран-Канарии за последнюю неделю. Архивные данные за месяц целиком и за предыдущие месяцы, начиная с января 2011 года, Вы можете получить, выбрав интересующий диапазон дат из раскрывающегося списка и нажав кнопку "Найти!".
*Определитесь, кто Вы:
Внимание! Время в таблицах - всемирное. Для получения местного времени необходимо прибавить поправку, которая равна 0 ч.
Смотрите также архив погоды в соседних городах и на ближайших метеорологических станциях:
Партнеры нашего сайта:      
Пояснения к столбцам:
  • Ветер - указаны скорость ветра в м/с - средняя за 10 мин, порывы в срок и между сроками (в фигурных скобках) и направление, откуда дует ветер: С - северный,
  • СВ - северо-восточный, В - восточный, ЮВ - юго-восточный, Ю - южный, ЮЗ - юго-западный, З - западный, СЗ - северо-западный.
  • Видимость - горизонтальная дальность видимости в метрах или километрах. При видимости от 1 до 10 км при отсутствии осадков обычно наблюдается дымка, при ухудшении видимости до 1 км и менее - туман. В сухую погоду видимость может ухудшаться дымом, пылью или мглою.
  • Явления - указаны атмосферные явления, наблюдавшиеся в срок или в последний час перед сроком; фигурными скобками обозначены явления, наблюдавшиеся между сроками (за 1-3 часа до срока); квадратными скобками обозначены град или гололедные отложения с указанием их диаметра в мм.
  • Облачность - указаны через наклонную черту общая и нижняя облачность в баллах и высота нижней границы облаков в метрах; квадратными скобками обозначены формы облаков: Ci - перистые, Cs - перисто-слоистые, Cc - перисто-кучевые, Ac - высококучевые, As - высокослоистые, Sc - слоисто-кучевые, Ns - слоисто-дождевые, Cu - кучевые, Cb - кучево-дождевые. Подробнее классификацию облаков см. в Атласе облаков (PDF).
  • T - Температура воздуха - температура, измеренная на высоте 2 м над землей.
  • Td - Температура точки росы - температура, при понижении до которой содержащийся в воздухе водяной пар достигнет насыщения.
  • f - Относительная влажность воздуха - влажноcть воздуха, измеренная на высоте 2 м над землей.
  • Te - Эффективная температура - температура, которую ощущает одетый по сезону человек в тени. Характеристика душности погоды. При расчете учитывается влияние влажности воздуха и скорости ветра на теплоощущения человека.
  • Tes - Эффективная температура на солнце - температура, которую ощущает человек, с поправкой на солнечный нагрев. Характеристика знойности погоды. Зависит от высоты солнца над горизонтом, облачности и скорости ветра. Ночью, в пасмурную погоду, а также при ветре 12 м/с и более поправка равна нулю.
  • P - Атмосферное давление - приведенное к уровню моря атмосферное давление.
  • Po - Атмосферное давление - измеренное на уровне метеостанции атмосферное давление.
  • Tmin - Минимальная температура - минимум температуры воздуха на высоте 2 м над землей.
  • Tmax - Максимальная температура - максимум температуры воздуха на высоте 2 м над землей.
  • R - Количество осадков - Количество выпавших осадков за период времени, мм. При наведении курсора мыши на число - период времени, за который выпало указанное количество осадков.
  • R24 - Количество осадков - Количество выпавших осадков за 24 часа, мм.
  • S - Снежный покров - Высота снежного покрова, см. При наведении курсора мыши на число - состояние снежного покрова и степень покрытия местности в баллах.